{"data":{"norad_id":42942,"intl_designator":"2017-057A","name":"ASIASAT 9","alt_names":[],"object_type":"PAYLOAD","status":"ACTIVE","operator":null,"country":"AC","launch_date":"2017-09-28","launch_site_code":"TYMSC","launch_vehicle":null,"mission":null,"orbit_class":"UNKNOWN","rcs_meters":null,"size_class":null,"mass_kg":null,"dimensions":null,"purposes":["comms"],"wikipedia_slug":null,"has_3d_model":false,"image_url":null,"decayed_at":null,"tle_current":{"epoch":"2026-09-19T21:07:38.670816Z","epoch_age_seconds":80682,"freshness":"FRESH","line1":"1 42942U 17057A   26262.88030869 -.00000364  00000+0  00000+0 0  9993","line2":"2 42942   0.0019 174.2118 0001952  10.8445 252.7511  1.00271368 32822","mean_motion":1.00271368,"eccentricity":0.0001952,"inclination_deg":0.0019,"raan_deg":174.2118,"arg_perigee_deg":10.8445,"mean_anomaly_deg":252.7511,"bstar":0,"rev_number":3282,"period_min":1436.1028763465,"perigee_km":35778.481283336,"apogee_km":35794.942440331,"semimajor_km":42164.848861833,"source":"CELESTRAK","updated_at":"2026-09-20T09:00:35.256484Z"}}}